[[{"header":{"parameterUnit":"m.s-1","parameterCategory":2,"la1":30.2991,"la2":30.254,"lo1":-89.0895,"lo2":-89.0444,"dy":0.0017,"dx":0.0017,"nx":28,"ny":28,"refTime":"2024-05-01T21:00:00:Z","depth":"0","parameterNumber":2,"parameterNumberName":"U-component_of_CURRENTS"},"data":[0,0,0,0,0,0,0,0,0,0,0,0,0,0,0,0,0,0,0,0,0,0,0,0,0,0,0,0,0,0,0,0,0,0,0,0,0,0,0,0,0,0,0,0,0,0,0,0,0,0,0,0,0,0,0,0,0,0,-0.1852,-0.1854,0,-0.2047,-0.2049,-0.2051,-0.2109,-0.2108,-0.2108,-0.2108,-0.2175,-0.2177,-0.2179,0,0,0,0,0,0,0,0,0,0,0,0,0,-0.1575,-0.1579,-0.1851,-0.1854,-0.1858,-0.2047,-0.2049,-0.2051,-0.2109,-0.2108,-0.2108,-0.2107,-0.2174,-0.2177,-0.2179,0,0,0,0,0,0,0,0,0,0,0,0,0,-0.1718,-0.158,-0.1851,-0.1915,-0.1923,-0.2047,-0.2049,-0.2052,-0.2109,-0.2108,-0.2108,-0.2107,-0.2174,-0.2177,-0.218,-0.2208,0,0,-0.2189,-0.2191,0,0,0,0,0,0,0,0,-0.1709,-0.1727,-0.1902,-0.1911,-0.192,-0.206,-0.1977,-0.21,-0.2109,-0.203,-0.2108,-0.2107,-0.213,-0.2137,-0.2165,-0.2211,-0.2214,-0.219,-0.2191,-0.2193,-0.2194,0,0,0,0,0,0,0,-0.1699,-0.1719,-0.1921,-0.1906,-0.1917,-0.1951,-0.1969,-0.2001,-0.2072,-0.2037,-0.2043,-0.2078,-0.2133,-0.2162,-0.2167,-0.2215,-0.2189,-0.2192,-0.2194,-0.2195,-0.2324,-0.2326,0,0,0,0,0,0,-0.169,-0.171,-0.1915,-0.1928,-0.182,-0.1957,-0.1977,-0.2009,-0.2075,-0.2087,-0.2078,-0.208,-0.2157,-0.2163,-0.217,-0.2238,-0.2193,-0.2196,-0.2197,-0.2323,-0.2325,-0.2326,0,0,0,0,0,0,-0.1683,-0.1706,-0.1907,-0.1829,-0.1858,-0.1962,-0.1998,-0.2013,-0.2048,-0.2109,-0.2117,-0.2098,-0.2157,-0.2165,-0.2211,-0.224,-0.2197,-0.22,-0.2321,-0.2323,-0.2326,-0.2355,0,0,0,0,0,0,-0.1674,-0.1702,-0.1706,-0.1829,-0.1863,-0.1991,-0.2,-0.2018,-0.2074,-0.2078,-0.2129,-0.2135,-0.2157,-0.2207,-0.2214,-0.2243,-0.2202,-0.2319,-0.2322,-0.2325,-0.2352,-0.2358,-0.2363,0,0,0,0,0,-0.1663,-0.1703,-0.1705,-0.173,-0.187,-0.1994,-0.2014,-0.208,-0.2075,-0.2104,-0.2134,-0.2133,-0.223,-0.221,-0.2219,-0.225,-0.2318,-0.2321,-0.2325,-0.2349,-0.2357,-0.2363,0,0,0,0,0,0,-0.1598,-0.1717,-0.1722,-0.1794,-0.1881,-0.2007,-0.2051,-0.208,-0.2129,-0.2126,-0.2154,-0.2164,-0.2209,-0.2228,-0.2205,-0.2296,-0.2274,-0.2279,-0.229,-0.2297,-0.2302,-0.2297,-0.2205,0,0,0,0,0,-0.158,-0.1629,-0.1745,-0.1798,-0.1845,-0.1935,-0.1986,-0.2034,-0.2105,-0.2127,-0.216,-0.2196,-0.2233,-0.2262,-0.2292,-0.2347,-0.2327,-0.2373,-0.2378,-0.2383,-0.2386,-0.2431,-0.2441,-0.2338,-0.2338,-0.2338,0,0,-0.1568,-0.1641,-0.1666,-0.1785,-0.1856,-0.193,-0.1964,-0.2059,-0.2096,-0.2124,-0.2172,-0.2208,-0.2247,-0.2307,-0.2331,-0.2328,-0.2384,-0.2387,-0.2391,-0.2391,-0.2436,-0.2446,-0.2455,-0.234,-0.234,-0.234,0,0,-0.1606,-0.1637,-0.1701,-0.1767,-0.1883,-0.1934,-0.1957,-0.2075,-0.2101,-0.2159,-0.2186,-0.2252,-0.2295,-0.2358,-0.2384,-0.2441,-0.2402,-0.244,-0.248,-0.2525,-0.2533,-0.2541,-0.2446,-0.2446,-0.2457,-0.2457,-0.2457,0,-0.1581,-0.1668,-0.1739,-0.1819,-0.1866,-0.193,-0.1998,-0.2042,-0.2148,-0.2189,-0.217,-0.2291,-0.2325,-0.2423,-0.2443,-0.2456,-0.242,-0.245,-0.2531,-0.2539,-0.2546,-0.2448,-0.2447,-0.2459,-0.2459,-0.2459,-0.2458,0,-0.1679,-0.1726,-0.1777,-0.1871,-0.1929,-0.2001,-0.2072,-0.2123,-0.2142,-0.2199,-0.2285,-0.2341,-0.2422,-0.2446,-0.2457,-0.2545,-0.2474,-0.2519,-0.251,-0.2558,-0.2451,-0.2449,-0.2462,-0.2461,-0.246,-0.246,0,0,-0.1667,-0.1811,-0.182,-0.1853,-0.1952,-0.2017,-0.2075,-0.2171,-0.2214,-0.2288,-0.2345,-0.2444,-0.2485,-0.2518,-0.2558,-0.2607,-0.2603,-0.2582,-0.2583,-0.2475,-0.2587,-0.2493,-0.248,-0.2663,-0.2665,-0.2666,-0.246,0,-0.1707,-0.1832,-0.1894,-0.1969,-0.2027,-0.2085,-0.213,-0.2216,-0.2263,-0.2326,-0.2409,-0.2465,-0.2505,-0.2534,-0.2599,-0.2599,-0.2612,-0.2647,-0.2567,-0.2562,-0.2467,-0.2483,-0.2389,-0.2197,-0.2457,-0.2457,-0.2457,0,-0.1774,-0.1837,-0.1925,-0.2006,-0.2039,-0.2079,-0.2161,-0.2212,-0.2318,-0.236,-0.2458,-0.2496,-0.2574,-0.2587,-0.2624,-0.2635,-0.2613,-0.2607,-0.2601,-0.2511,-0.2469,-0.221,-0.2183,-0.2173,-0.2454,-0.2454,-0.2454,0,-0.1729,-0.185,-0.1902,-0.1932,-0.2042,-0.208,-0.2123,-0.2231,-0.2268,-0.2367,-0.2387,-0.2505,-0.25,-0.2557,-0.254,-0.2579,-0.2522,-0.258,-0.2463,-0.2449,-0.2354,-0.2331,-0.2309,-0.2612,-0.2613,-0.2613,-0.2614,0,-0.1741,-0.1779,-0.1879,-0.1907,-0.1952,-0.2038,-0.2089,-0.2166,-0.2243,-0.2276,-0.2382,-0.2399,-0.2497,-0.2482,-0.2505,-0.2434,-0.2493,-0.2448,-0.242,-0.235,-0.233,-0.2307,-0.2333,-0.2605,-0.2607,-0.2609,-0.261,0,-0.1691,-0.1765,-0.1819,-0.1914,-0.1936,-0.196,-0.2035,-0.2064,-0.2149,-0.2174,-0.2191,-0.2278,-0.2266,-0.231,-0.2333,-0.2334,-0.2269,-0.2286,-0.212,-0.208,-0.1996,-0.2026,-0.1939,-0.1889,-0.212,-0.2117,-0.2115,0,-0.1681,-0.1703,-0.1788,-0.1793,-0.1827,-0.187,-0.1886,-0.1999,-0.2018,-0.2095,-0.2079,-0.2091,-0.2107,-0.2058,-0.2071,-0.204,-0.2106,-0.1921,-0.2039,-0.1961,-0.1976,-0.2002,-0.197,-0.1864,-0.186,-0.1856,-0.1853,0,-0.1618,-0.1645,-0.1678,-0.1688,-0.1701,-0.1729,-0.1759,-0.1774,-0.1875,-0.1905,-0.1924,-0.1947,-0.1913,-0.1867,-0.1816,-0.1812,-0.1871,-0.1844,-0.1856,-0.1846,-0.1785,-0.1731,-0.1934,-0.1821,-0.1824,-0.1826,-0.1828,-0.1829,-0.1534,-0.1532,-0.1555,-0.1556,-0.1567,-0.1558,-0.155,-0.1594,-0.1619,-0.165,-0.1731,-0.1738,-0.1718,-0.1664,-0.1635,-0.1544,-0.1635,-0.1545,-0.1589,-0.1623,-0.1603,-0.1668,-0.15,-0.1501,-0.1503,-0.1504,-0.1505,0,-0.1405,-0.141,-0.1409,-0.1409,-0.1365,-0.1421,-0.143,-0.1411,-0.1404,-0.1471,-0.1501,-0.1513,-0.1448,-0.1455,-0.1379,-0.1322,-0.1323,-0.1301,-0.135,-0.1336,-0.1454,-0.1476,-0.1187,-0.1187,-0.1187,-0.1187,-0.1187,-0.1187,-0.1335,-0.1284,-0.1292,-0.1192,-0.1188,-0.1122,-0.1112,-0.1118,-0.1151,-0.117,-0.1217,-0.1292,-0.13,-0.1371,-0.1288,-0.1225,-0.1232,-0.1162,-0.1211,-0.134,-0.1368,-0.1395,-0.1425,-0.113,-0.113,-0.1045,-0.1044,-0.1044]},{"header":{"parameterUnit":"m.s-1","parameterCategory":2,"la1":30.2991,"la2":30.254,"lo1":-89.0895,"lo2":-89.0444,"dy":0.0017,"dx":0.0017,"nx":28,"ny":28,"refTime":"2024-05-01T21:00:00:Z","depth":"0","parameterNumber":3,"parameterNumberName":"V-component_of_CURRENTS"},"data":[0,0,0,0,0,0,0,0,0,0,0,0,0,0,0,0,0,0,0,0,0,0,0,0,0,0,0,0,0,0,0,0,0,0,0,0,0,0,0,0,0,0,0,0,0,0,0,0,0,0,0,0,0,0,0,0,0,0,-0.0031,-0.0032,0,-0.0039,-0.0039,-0.0039,-0.004,-0.004,-0.004,-0.004,-0.0027,-0.0027,-0.0026,0,0,0,0,0,0,0,0,0,0,0,0,0,-0.0032,-0.0031,-0.0031,-0.0032,-0.0032,-0.0039,-0.0039,-0.0039,-0.004,-0.004,-0.004,-0.004,-0.0027,-0.0027,-0.0026,0,0,0,0,0,0,0,0,0,0,0,0,0,-0.0034,-0.0031,-0.0031,-0.0033,-0.0033,-0.0039,-0.0039,-0.0039,-0.004,-0.004,-0.004,-0.004,-0.0027,-0.0027,-0.0026,-0.0025,0,0,-0.0025,-0.0025,0,0,0,0,0,0,0,0,-0.0034,-0.0034,-0.0033,-0.0033,-0.0033,-0.0039,-0.0034,-0.0033,-0.004,-0.0037,-0.004,-0.004,-0.0029,-0.0029,-0.003,-0.0024,-0.0024,-0.0025,-0.0025,-0.0025,-0.0024,0,0,0,0,0,0,0,-0.0034,-0.0034,-0.0034,-0.0033,-0.0033,-0.0038,-0.0038,-0.0034,-0.0033,-0.0037,-0.0037,-0.0039,-0.0029,-0.003,-0.003,-0.0024,-0.0025,-0.0025,-0.0024,-0.0024,0.0031,0.0032,0,0,0,0,0,0,-0.0033,-0.0033,-0.0034,-0.0034,-0.0034,-0.0038,-0.0038,-0.0037,-0.0033,-0.0033,-0.0039,-0.0039,-0.0031,-0.003,-0.0029,-0.0011,-0.0025,-0.0024,-0.0024,0.003,0.0031,0.0032,0,0,0,0,0,0,-0.0033,-0.0033,-0.0033,-0.0035,-0.0035,-0.0038,-0.0036,-0.0037,-0.0038,-0.0035,-0.0034,-0.004,-0.0031,-0.003,-0.0023,-0.0011,-0.0024,-0.0023,0.0028,0.003,0.0032,0.0016,0,0,0,0,0,0,-0.0033,-0.0032,-0.0036,-0.0034,-0.0035,-0.0049,-0.0036,-0.0037,-0.0039,-0.0039,-0.0035,-0.0034,-0.0031,-0.0023,-0.0022,-0.001,-0.0023,0.0027,0.0029,0.0031,0.0015,0.0017,0.0019,0,0,0,0,0,-0.0033,-0.0046,-0.0036,-0.0037,-0.0038,-0.005,-0.0051,-0.0053,-0.0039,-0.0051,-0.0035,-0.0034,-0.0007,-0.0023,-0.0021,-0.0009,0.0026,0.0028,0.0031,0.0014,0.0017,0.0019,0,0,0,0,0,0,-0.0054,-0.0047,-0.0037,-0.0047,-0.0051,-0.0051,-0.0062,-0.0053,-0.0049,-0.0045,-0.0032,-0.003,-0.0014,-0.0006,-0.0023,0.0018,0.0015,0.0018,0.0002,0.0004,0.0006,-0.0012,-0.0023,0,0,0,0,0,-0.0057,-0.0061,-0.0056,-0.0065,-0.0066,-0.0059,-0.0063,-0.0062,-0.0056,-0.0055,-0.0046,-0.0025,-0.0001,0.0003,0.0018,0.0029,0.0056,0.0045,0.0047,0.0048,0.0037,0.0109,0.0116,0.0041,0.0041,0.0041,0,0,-0.0069,-0.0065,-0.0068,-0.007,-0.0069,-0.0085,-0.0062,-0.0072,-0.0074,-0.0053,-0.0052,-0.0025,0.0004,0.0022,0.0031,0.0027,0.0084,0.0051,0.0052,0.004,0.0113,0.012,0.0126,0.0043,0.0043,0.0042,0,0,-0.0106,-0.0088,-0.0109,-0.0112,-0.0114,-0.0107,-0.0108,-0.0104,-0.009,-0.0085,-0.0054,-0.0018,-0.0005,0.0029,0.0048,0.0071,0.0093,0.0081,0.0069,0.014,0.0146,0.0152,0.019,0.0199,0.008,0.008,0.008,0,-0.0123,-0.0142,-0.012,-0.0143,-0.0149,-0.0117,-0.0144,-0.0124,-0.0116,-0.0097,-0.009,-0.0023,0.0003,0.0049,0.006,0.0074,0.0105,0.0053,0.0141,0.0148,0.0154,0.0191,0.0202,0.008,0.008,0.008,0.008,0,-0.0176,-0.0192,-0.0204,-0.0215,-0.0218,-0.0235,-0.0206,-0.0191,-0.0161,-0.0138,-0.0087,-0.0038,0.0001,0.003,0.0047,0.0111,0.0114,0.0135,0.0129,0.016,0.0198,0.0209,0.0079,0.0079,0.0079,0.008,0,0,-0.0212,-0.0238,-0.0242,-0.0261,-0.0256,-0.0266,-0.0248,-0.0226,-0.0203,-0.0165,-0.0127,-0.0064,-0.0025,0.0001,0.0048,0.0111,0.0188,0.0134,0.0138,0.0159,0.0321,0.0319,0.0331,0.0226,0.0228,0.0229,0.0326,0,-0.0262,-0.0322,-0.0314,-0.036,-0.0387,-0.0344,-0.0331,-0.0298,-0.0248,-0.0199,-0.0112,-0.0067,-0.0037,-0.0007,0.0062,0.0159,0.0217,0.0157,0.0298,0.0301,0.0287,0.0344,0.0357,0.0445,0.0337,0.0339,0.0341,0,-0.0317,-0.0349,-0.0408,-0.0427,-0.0431,-0.0443,-0.0402,-0.0388,-0.0298,-0.0254,-0.0184,-0.0118,-0.0022,0.001,0.0171,0.013,0.0216,0.0292,0.0298,0.0305,0.032,0.04,0.047,0.0588,0.0358,0.0357,0.0356,0,-0.036,-0.0411,-0.0458,-0.0468,-0.0481,-0.048,-0.0472,-0.0406,-0.0378,-0.0284,-0.0247,-0.0133,-0.0061,0.006,0.0198,0.0193,0.038,0.0399,0.0474,0.0473,0.0516,0.0515,0.0706,0.0518,0.0517,0.0517,0.0517,0,-0.0418,-0.0454,-0.0482,-0.0511,-0.0546,-0.0531,-0.0531,-0.0494,-0.0424,-0.0386,-0.0284,-0.0224,-0.004,0.0084,0.02,0.0363,0.0381,0.0478,0.0509,0.0509,0.0508,0.0636,0.0671,0.0521,0.052,0.0519,0.0519,0,-0.0463,-0.0484,-0.0542,-0.0568,-0.0573,-0.0598,-0.0586,-0.057,-0.0506,-0.0444,-0.0417,-0.027,-0.011,0.0059,0.0274,0.0367,0.0589,0.057,0.0537,0.0563,0.0733,0.0765,0.0942,0.1013,0.0675,0.0676,0.0676,0,-0.0494,-0.0529,-0.0584,-0.0612,-0.0628,-0.0652,-0.0654,-0.0615,-0.059,-0.0477,-0.0445,-0.0282,-0.0154,0.0135,0.0337,0.0546,0.0637,0.0667,0.0668,0.0754,0.0814,0.0828,0.0876,0.072,0.0721,0.0722,0.0722,0,-0.0543,-0.0558,-0.0602,-0.066,-0.0687,-0.0717,-0.0716,-0.0713,-0.0644,-0.0588,-0.0486,-0.0377,-0.0085,0.0168,0.0436,0.0555,0.0743,0.0687,0.0813,0.0894,0.0888,0.0965,0.0617,0.0729,0.0728,0.0728,0.0727,0.0727,-0.0561,-0.0602,-0.0647,-0.0701,-0.0735,-0.0763,-0.0781,-0.0762,-0.0734,-0.0635,-0.0527,-0.0351,0.0032,0.0418,0.056,0.0851,0.0822,0.0936,0.0974,0.0986,0.104,0.0679,0.08,0.0799,0.0799,0.0799,0.0799,0,-0.0573,-0.0616,-0.0675,-0.074,-0.0777,-0.0785,-0.0801,-0.0805,-0.0779,-0.0658,-0.0543,-0.0142,0.022,0.0565,0.0984,0.1139,0.1181,0.1207,0.1258,0.1301,0.103,0.1019,0.1147,0.1147,0.1147,0.1147,0.1147,0.1146,-0.0581,-0.0632,-0.067,-0.0747,-0.0788,-0.083,-0.0842,-0.0842,-0.0774,-0.0595,-0.0378,-0.0179,0.0335,0.1011,0.1396,0.1425,0.1572,0.153,0.1618,0.1451,0.1429,0.1408,0.1411,0.1619,0.1619,0.1884,0.1887,0.1889]}],[{"header":{"parameterUnit":"m.s-1","parameterCategory":2,"la1":30.2991,"la2":30.254,"lo1":-89.0895,"lo2":-89.0444,"dy":0.0017,"dx":0.0017,"nx":28,"ny":28,"refTime":"2024-05-01T21:00:00:Z","depth":"2","parameterNumber":2,"parameterNumberName":"U-component_of_CURRENTS"},"data":[0,0,0,0,0,0,0,0,0,0,0,0,0,0,0,0,0,0,0,0,0,0,0,0,0,0,0,0,0,0,0,0,0,0,0,0,0,0,0,0,0,0,0,0,0,0,0,0,0,0,0,0,0,0,0,0,0,0,-0.1344,-0.1344,0,-0.1445,-0.1447,-0.1448,-0.1583,-0.1585,-0.1587,-0.1588,-0.1446,-0.1441,-0.1435,0,0,0,0,0,0,0,0,0,0,0,0,0,-0.1244,-0.1246,-0.1344,-0.1344,-0.1345,-0.1445,-0.1447,-0.1449,-0.1583,-0.1585,-0.1587,-0.1589,-0.1448,-0.1441,-0.1435,0,0,0,0,0,0,0,0,0,0,0,0,0,-0.1316,-0.1246,-0.1344,-0.142,-0.1427,-0.1444,-0.1447,-0.1449,-0.1583,-0.1585,-0.1588,-0.159,-0.145,-0.1442,-0.1434,-0.1335,0,0,-0.141,-0.1406,0,0,0,0,0,0,0,0,-0.1312,-0.1321,-0.1408,-0.1414,-0.1422,-0.1499,-0.136,-0.1397,-0.1582,-0.153,-0.1588,-0.1591,-0.1435,-0.1428,-0.1454,-0.1328,-0.1322,-0.1409,-0.1404,-0.1401,-0.1398,0,0,0,0,0,0,0,-0.1307,-0.1317,-0.139,-0.1408,-0.1417,-0.144,-0.1454,-0.1369,-0.1467,-0.1535,-0.1543,-0.1544,-0.1439,-0.1462,-0.1451,-0.132,-0.1409,-0.1402,-0.1397,-0.1394,-0.1239,-0.1239,0,0,0,0,0,0,-0.1281,-0.1312,-0.1387,-0.1392,-0.1365,-0.144,-0.1456,-0.1477,-0.1474,-0.1476,-0.1542,-0.155,-0.1474,-0.146,-0.1446,-0.1534,-0.1401,-0.1393,-0.1389,-0.1238,-0.1239,-0.124,0,0,0,0,0,0,-0.1279,-0.1287,-0.1383,-0.1348,-0.1362,-0.1438,-0.1461,-0.1477,-0.1556,-0.1481,-0.148,-0.1609,-0.1476,-0.1457,-0.1424,-0.1521,-0.139,-0.1382,-0.1237,-0.1238,-0.1239,-0.1575,0,0,0,0,0,0,-0.1276,-0.1286,-0.1294,-0.1347,-0.1362,-0.1425,-0.1459,-0.1477,-0.1546,-0.1559,-0.1535,-0.1524,-0.1476,-0.1436,-0.1416,-0.1508,-0.1376,-0.1236,-0.1238,-0.1239,-0.1563,-0.1588,-0.1608,0,0,0,0,0,-0.1272,-0.1295,-0.1294,-0.1303,-0.1371,-0.1425,-0.1437,-0.1502,-0.1547,-0.1584,-0.1576,-0.1527,-0.143,-0.143,-0.1406,-0.1498,-0.1236,-0.1237,-0.1239,-0.1553,-0.1583,-0.1608,0,0,0,0,0,0,-0.1266,-0.1311,-0.1312,-0.1349,-0.1386,-0.1446,-0.1478,-0.1526,-0.1558,-0.1581,-0.1526,-0.1512,-0.1534,-0.1428,-0.143,-0.1445,-0.1326,-0.1323,-0.1573,-0.16,-0.1622,-0.1597,-0.1369,0,0,0,0,0,-0.1255,-0.1282,-0.1322,-0.1347,-0.1368,-0.1427,-0.1459,-0.1517,-0.1545,-0.1571,-0.1534,-0.1499,-0.1508,-0.1488,-0.1441,-0.1421,-0.1325,-0.1457,-0.148,-0.1501,-0.1456,-0.1487,-0.1512,-0.1245,-0.1245,-0.1245,0,0,-0.1252,-0.128,-0.1293,-0.1344,-0.1379,-0.1441,-0.1458,-0.1535,-0.1603,-0.1532,-0.1581,-0.1573,-0.1518,-0.1549,-0.1544,-0.1481,-0.1514,-0.1502,-0.1523,-0.1464,-0.1492,-0.1519,-0.1543,-0.1246,-0.1246,-0.1245,0,0,-0.1285,-0.1291,-0.1338,-0.1368,-0.1431,-0.1472,-0.1505,-0.1572,-0.1622,-0.166,-0.1665,-0.1716,-0.1643,-0.1679,-0.1683,-0.1771,-0.1645,-0.1742,-0.1836,-0.1873,-0.1897,-0.1917,-0.1801,-0.1808,-0.1745,-0.1746,-0.1746,0,-0.1279,-0.134,-0.1357,-0.1413,-0.1447,-0.1497,-0.1572,-0.1626,-0.1673,-0.1701,-0.17,-0.1736,-0.1727,-0.1822,-0.1882,-0.1839,-0.1757,-0.1773,-0.1913,-0.1931,-0.1946,-0.1822,-0.1826,-0.1762,-0.176,-0.1759,-0.1757,0,-0.1347,-0.1398,-0.1428,-0.151,-0.1556,-0.1621,-0.1687,-0.1736,-0.1795,-0.184,-0.1927,-0.194,-0.1947,-0.2004,-0.1981,-0.209,-0.1961,-0.1968,-0.1874,-0.1995,-0.1853,-0.1851,-0.1786,-0.178,-0.1775,-0.1771,0,0,-0.1327,-0.1453,-0.146,-0.1512,-0.1614,-0.1661,-0.1766,-0.1861,-0.191,-0.1993,-0.2047,-0.2182,-0.2173,-0.2167,-0.2176,-0.2231,-0.2315,-0.214,-0.2134,-0.2068,-0.2268,-0.2199,-0.2187,-0.2365,-0.2367,-0.2369,-0.2119,0,-0.1373,-0.1496,-0.1549,-0.1661,-0.1735,-0.1792,-0.1861,-0.1954,-0.2007,-0.2039,-0.2149,-0.2186,-0.224,-0.2255,-0.2342,-0.2288,-0.2324,-0.2371,-0.2112,-0.21,-0.207,-0.2191,-0.2056,-0.1827,-0.2116,-0.2115,-0.2115,0,-0.1418,-0.1502,-0.1627,-0.1739,-0.1768,-0.1826,-0.192,-0.1986,-0.2064,-0.2101,-0.2191,-0.2201,-0.229,-0.232,-0.2341,-0.2354,-0.2323,-0.2307,-0.2298,-0.2102,-0.2032,-0.1748,-0.181,-0.2109,-0.211,-0.211,-0.211,0,-0.1406,-0.1543,-0.1643,-0.1679,-0.1818,-0.1862,-0.1915,-0.2001,-0.2026,-0.21,-0.21,-0.2208,-0.2204,-0.2253,-0.224,-0.2272,-0.2206,-0.2243,-0.2146,-0.2132,-0.189,-0.1855,-0.2279,-0.2279,-0.228,-0.2281,-0.2281,0,-0.1432,-0.1502,-0.163,-0.1681,-0.1746,-0.1843,-0.1881,-0.1945,-0.1989,-0.1998,-0.2095,-0.2102,-0.2196,-0.2175,-0.2191,-0.2126,-0.2169,-0.2141,-0.2101,-0.1994,-0.1973,-0.2113,-0.2097,-0.2271,-0.2273,-0.2275,-0.2277,0,-0.1405,-0.15,-0.1597,-0.1725,-0.1747,-0.1779,-0.1822,-0.1826,-0.1893,-0.1889,-0.1905,-0.1975,-0.1963,-0.2004,-0.2011,-0.2017,-0.1995,-0.1972,-0.1766,-0.1712,-0.1879,-0.1882,-0.1799,-0.1795,-0.1792,-0.179,-0.1788,0,-0.1403,-0.1461,-0.158,-0.1587,-0.1631,-0.1675,-0.1678,-0.1766,-0.1763,-0.1815,-0.1793,-0.1797,-0.1806,-0.1748,-0.1769,-0.1726,-0.1862,-0.1572,-0.1686,-0.1879,-0.1847,-0.1855,-0.1863,-0.1442,-0.1437,-0.1433,-0.143,0,-0.1369,-0.1405,-0.1463,-0.1489,-0.1495,-0.1514,-0.1531,-0.1528,-0.1614,-0.1621,-0.1631,-0.1642,-0.161,-0.154,-0.1499,-0.1486,-0.1579,-0.1491,-0.1757,-0.1629,-0.1537,-0.1508,-0.1528,-0.1395,-0.1398,-0.1401,-0.1403,-0.1404,-0.1286,-0.1288,-0.1339,-0.1344,-0.1351,-0.1342,-0.132,-0.1352,-0.1356,-0.1368,-0.1442,-0.1419,-0.142,-0.1316,-0.126,-0.1223,-0.1352,-0.1314,-0.1329,-0.1347,-0.1395,-0.131,-0.1121,-0.1123,-0.1124,-0.1126,-0.1127,0,-0.1164,-0.1172,-0.1175,-0.1185,-0.1146,-0.1203,-0.1203,-0.1173,-0.1158,-0.1195,-0.121,-0.1101,-0.1054,-0.1074,-0.0967,-0.0953,-0.0973,-0.0918,-0.0948,-0.0982,-0.1012,-0.1048,-0.0679,-0.0678,-0.0676,-0.0675,0,0,-0.1095,-0.1049,-0.1061,-0.0977,-0.098,-0.092,-0.091,-0.09,-0.0912,-0.0881,-0.0883,-0.098,-0.1022,-0.0842,-0.0803,-0.0724,-0.0847,-0.0687,-0.1043,-0.1109,-0.1138,-0.1229,-0.1321,0,0,0,0,0]},{"header":{"parameterUnit":"m.s-1","parameterCategory":2,"la1":30.2991,"la2":30.254,"lo1":-89.0895,"lo2":-89.0444,"dy":0.0017,"dx":0.0017,"nx":28,"ny":28,"refTime":"2024-05-01T21:00:00:Z","depth":"2","parameterNumber":3,"parameterNumberName":"V-component_of_CURRENTS"},"data":[0,0,0,0,0,0,0,0,0,0,0,0,0,0,0,0,0,0,0,0,0,0,0,0,0,0,0,0,0,0,0,0,0,0,0,0,0,0,0,0,0,0,0,0,0,0,0,0,0,0,0,0,0,0,0,0,0,0,-0.0021,-0.002,0,-0.0019,-0.002,-0.002,-0.0046,-0.0046,-0.0047,-0.0047,-0.0078,-0.0078,-0.0079,0,0,0,0,0,0,0,0,0,0,0,0,0,-0.0055,-0.0054,-0.0021,-0.002,-0.002,-0.0019,-0.002,-0.002,-0.0046,-0.0046,-0.0047,-0.0047,-0.0077,-0.0078,-0.0079,0,0,0,0,0,0,0,0,0,0,0,0,0,-0.005,-0.0054,-0.0021,-0.0029,-0.0029,-0.0019,-0.002,-0.002,-0.0046,-0.0046,-0.0047,-0.0047,-0.0077,-0.0078,-0.0079,-0.0077,0,0,-0.0082,-0.0082,0,0,0,0,0,0,0,0,-0.005,-0.0049,-0.0028,-0.0028,-0.0029,-0.0029,-0.0043,-0.0039,-0.0046,-0.0045,-0.0047,-0.0047,-0.0061,-0.0063,-0.0069,-0.0079,-0.008,-0.0082,-0.0082,-0.0083,-0.0083,0,0,0,0,0,0,0,-0.005,-0.0049,-0.0025,-0.0028,-0.0028,-0.0035,-0.0036,-0.0043,-0.0055,-0.0045,-0.0046,-0.0037,-0.0062,-0.0068,-0.007,-0.008,-0.0082,-0.0082,-0.0083,-0.0083,-0.0058,-0.0057,0,0,0,0,0,0,-0.004,-0.005,-0.0025,-0.0025,-0.0035,-0.0034,-0.0035,-0.0033,-0.0054,-0.0056,-0.0037,-0.0039,-0.0066,-0.0068,-0.0071,-0.0056,-0.0083,-0.0083,-0.0084,-0.006,-0.0058,-0.0057,0,0,0,0,0,0,-0.0041,-0.0038,-0.0025,-0.0033,-0.0031,-0.0032,-0.003,-0.0032,-0.0049,-0.0047,-0.0051,-0.0052,-0.0066,-0.0069,-0.007,-0.0058,-0.0084,-0.0085,-0.0061,-0.0059,-0.0058,-0.0037,0,0,0,0,0,0,-0.0042,-0.0038,-0.0043,-0.0032,-0.003,-0.0036,-0.003,-0.0032,-0.004,-0.0042,-0.0061,-0.0064,-0.0067,-0.0069,-0.0071,-0.006,-0.0085,-0.0063,-0.006,-0.0058,-0.0039,-0.0034,-0.003,0,0,0,0,0,-0.0043,-0.0053,-0.0043,-0.0041,-0.0034,-0.0036,-0.0037,-0.0042,-0.004,-0.0057,-0.0049,-0.0064,-0.0056,-0.0069,-0.0072,-0.0061,-0.0064,-0.0061,-0.0058,-0.0041,-0.0035,-0.0031,0,0,0,0,0,0,-0.0076,-0.0056,-0.0045,-0.005,-0.0046,-0.0039,-0.0049,-0.0047,-0.0056,-0.0061,-0.0057,-0.0059,-0.0048,-0.0057,-0.0071,-0.0043,-0.0059,-0.0057,-0.0044,-0.0039,-0.0035,-0.0061,-0.0086,0,0,0,0,0,-0.008,-0.0082,-0.0063,-0.0068,-0.0063,-0.0056,-0.0058,-0.0065,-0.0062,-0.0068,-0.0065,-0.0057,-0.0037,-0.0043,-0.0033,-0.0032,-0.0021,-0.0022,-0.0018,-0.0015,-0.0035,0.0035,0.0044,-0.0048,-0.0048,-0.0048,0,0,-0.0091,-0.0081,-0.0082,-0.0075,-0.0069,-0.0078,-0.0061,-0.0075,-0.0078,-0.0069,-0.0071,-0.0046,-0.003,-0.0015,-0.0012,-0.0026,0.0016,-0.0011,-0.0009,-0.0032,0.0039,0.0048,0.0056,-0.0046,-0.0046,-0.0047,0,0,-0.0127,-0.0107,-0.0126,-0.0121,-0.0117,-0.0107,-0.0112,-0.0105,-0.0097,-0.0095,-0.0066,-0.0032,-0.0031,0.0002,0.0016,0.0046,0.0043,0.0048,0.0035,0.0105,0.0113,0.012,0.0135,0.0144,0.0042,0.0042,0.0042,0,-0.0145,-0.016,-0.0133,-0.015,-0.0148,-0.0121,-0.0145,-0.0127,-0.012,-0.0103,-0.01,-0.0038,-0.0019,0.0028,0.0044,0.0055,0.0072,0.0014,0.0111,0.0118,0.0125,0.0139,0.0148,0.0043,0.0043,0.0043,0.0043,0,-0.019,-0.0205,-0.0213,-0.0217,-0.0215,-0.023,-0.0195,-0.0184,-0.0162,-0.0138,-0.0088,-0.0041,-0.0008,0.0023,0.0036,0.01,0.0088,0.0116,0.0095,0.0135,0.0147,0.0156,0.0045,0.0045,0.0044,0.0044,0,0,-0.0226,-0.0244,-0.0248,-0.0264,-0.0253,-0.0258,-0.024,-0.0214,-0.0196,-0.0157,-0.0124,-0.0053,-0.0019,-0.0,0.0046,0.0105,0.0179,0.0119,0.0123,0.0126,0.0293,0.029,0.0299,0.0228,0.023,0.0232,0.0278,0,-0.0273,-0.0326,-0.0313,-0.0353,-0.0375,-0.0331,-0.0314,-0.0282,-0.0237,-0.0192,-0.0108,-0.0066,-0.0028,-0.0005,0.0066,0.0151,0.0204,0.016,0.0258,0.0259,0.0248,0.0311,0.0284,0.0324,0.0286,0.0288,0.0289,0,-0.0319,-0.0352,-0.0407,-0.0421,-0.0422,-0.0428,-0.0388,-0.0373,-0.0287,-0.0251,-0.0183,-0.0121,-0.0033,0.0004,0.0151,0.0118,0.0196,0.0264,0.0269,0.0259,0.0274,0.0281,0.0341,0.0303,0.0302,0.0301,0.03,0,-0.0366,-0.041,-0.0458,-0.0463,-0.0472,-0.0468,-0.0456,-0.0392,-0.0367,-0.0285,-0.0258,-0.0148,-0.009,0.0028,0.0156,0.0158,0.0314,0.0342,0.0408,0.0406,0.0396,0.0391,0.0454,0.0454,0.0454,0.0454,0.0454,0,-0.042,-0.0454,-0.0482,-0.0508,-0.054,-0.0522,-0.0521,-0.0484,-0.0424,-0.0391,-0.0295,-0.0245,-0.0074,0.0035,0.0145,0.029,0.0308,0.0405,0.0433,0.0401,0.0396,0.0386,0.0378,0.0456,0.0455,0.0455,0.0455,0,-0.0464,-0.0486,-0.054,-0.0564,-0.0568,-0.0588,-0.0572,-0.0559,-0.0506,-0.0456,-0.0434,-0.0305,-0.0165,-0.001,0.0185,0.0275,0.0413,0.0462,0.0381,0.04,0.0453,0.0445,0.0537,0.0537,0.0538,0.0538,0.0539,0,-0.0491,-0.0529,-0.0581,-0.0604,-0.0616,-0.0636,-0.0638,-0.0603,-0.0583,-0.0491,-0.0467,-0.0329,-0.0215,0.0035,0.0223,0.0407,0.0429,0.0478,0.0498,0.045,0.0468,0.046,0.0451,0.0483,0.0483,0.0483,0.0483,0,-0.0536,-0.0552,-0.0592,-0.0649,-0.067,-0.0697,-0.0696,-0.0697,-0.064,-0.0597,-0.0513,-0.042,-0.0168,0.0039,0.0275,0.038,0.0445,0.0482,0.0488,0.0464,0.0405,0.042,0.0414,0.0482,0.0482,0.0482,0.0482,0.0483,-0.0548,-0.0584,-0.0631,-0.0679,-0.0711,-0.0742,-0.0758,-0.0744,-0.0727,-0.0648,-0.0555,-0.0407,-0.0189,0.0143,0.0316,0.0471,0.0477,0.0518,0.0517,0.0516,0.05,0.0445,0.0523,0.0524,0.0524,0.0524,0.0524,0,-0.0557,-0.0597,-0.065,-0.0711,-0.0749,-0.0759,-0.0779,-0.0784,-0.0768,-0.0669,-0.0574,-0.0351,-0.0103,0.0117,0.0368,0.052,0.0517,0.0534,0.0509,0.0508,0.0508,0.049,0.0512,0.0512,0.0513,0.0513,0,0,-0.0563,-0.061,-0.0646,-0.0721,-0.0762,-0.0808,-0.0823,-0.0822,-0.0765,-0.0689,-0.0574,-0.0389,-0.0109,0.0067,0.0265,0.0397,0.0409,0.0402,0.0395,0.0339,0.0338,0.0478,0.0448,0,0,0,0,0]}],[{"header":{"parameterUnit":"m.s-1","parameterCategory":2,"la1":30.2991,"la2":30.254,"lo1":-89.0895,"lo2":-89.0444,"dy":0.0017,"dx":0.0017,"nx":28,"ny":28,"refTime":"2024-05-01T21:00:00:Z","depth":"4","parameterNumber":2,"parameterNumberName":"U-component_of_CURRENTS"},"data":[0,0,0,0,0,0,0,0,0,0,0,0,0,0,0,0,0,0,0,0,0,0,0,0,0,0,0,0,0,0,0,0,0,0,0,0,0,0,0,0,0,0,0,0,0,0,0,0,0,0,0,0,0,0,0,0,0,0,-0.0643,-0.0642,0,-0.0534,-0.0533,-0.0532,-0.0484,-0.0484,-0.0484,-0.0484,-0.0416,-0.0414,-0.0413,0,0,0,0,0,0,0,0,0,0,0,0,0,-0.0736,-0.0735,-0.0643,-0.0642,-0.064,-0.0535,-0.0533,-0.0532,-0.0484,-0.0484,-0.0484,-0.0484,-0.0417,-0.0415,-0.0412,0,0,0,0,0,0,0,0,0,0,0,0,0,-0.067,-0.0734,-0.0643,-0.0603,-0.0598,-0.0535,-0.0533,-0.0532,-0.0484,-0.0484,-0.0484,-0.0484,-0.0418,-0.0415,-0.0412,-0.0395,0,0,-0.0404,-0.0403,0,0,0,0,0,0,0,0,-0.0674,-0.0667,-0.061,-0.0605,-0.06,-0.0521,-0.0541,-0.0487,-0.0484,-0.0529,-0.0484,-0.0484,-0.0454,-0.0448,-0.0429,-0.0392,-0.0389,-0.0404,-0.0402,-0.0401,-0.04,0,0,0,0,0,0,0,-0.0678,-0.067,-0.0602,-0.0608,-0.0602,-0.0564,-0.0556,-0.053,-0.0495,-0.0525,-0.0521,-0.0506,-0.0452,-0.0432,-0.0428,-0.0388,-0.0404,-0.0401,-0.04,-0.0398,-0.0318,-0.0317,0,0,0,0,0,0,-0.0692,-0.0675,-0.0605,-0.0598,-0.0636,-0.0563,-0.0553,-0.0548,-0.0494,-0.0485,-0.0506,-0.0504,-0.0437,-0.0431,-0.0425,-0.0424,-0.0401,-0.0398,-0.0397,-0.0318,-0.0318,-0.0317,0,0,0,0,0,0,-0.0695,-0.0688,-0.0609,-0.0632,-0.062,-0.0562,-0.0555,-0.0546,-0.053,-0.0479,-0.0471,-0.0501,-0.0437,-0.0429,-0.0406,-0.042,-0.0397,-0.0395,-0.0319,-0.0318,-0.0317,-0.0407,0,0,0,0,0,0,-0.0698,-0.069,-0.0704,-0.0634,-0.0619,-0.0579,-0.0555,-0.0543,-0.052,-0.0517,-0.0472,-0.0465,-0.0436,-0.041,-0.0403,-0.0416,-0.0392,-0.032,-0.0319,-0.0318,-0.0405,-0.041,-0.0414,0,0,0,0,0,-0.0702,-0.0699,-0.0705,-0.0697,-0.0636,-0.0579,-0.0569,-0.0528,-0.052,-0.0514,-0.0485,-0.0467,-0.0399,-0.0408,-0.04,-0.0412,-0.032,-0.0319,-0.0318,-0.0403,-0.0409,-0.0413,0,0,0,0,0,0,-0.0734,-0.0692,-0.0697,-0.0681,-0.0646,-0.0571,-0.0555,-0.0535,-0.0505,-0.0505,-0.0466,-0.0456,-0.0437,-0.0407,-0.0418,-0.0381,-0.0354,-0.0352,-0.0422,-0.0427,-0.0431,-0.0516,-0.039,0,0,0,0,0,-0.0755,-0.0752,-0.0702,-0.0695,-0.0675,-0.0624,-0.0601,-0.0575,-0.0531,-0.0518,-0.0493,-0.0457,-0.0423,-0.0413,-0.0376,-0.0365,-0.0389,-0.0362,-0.0367,-0.0371,-0.0432,-0.0443,-0.0456,-0.0313,-0.0313,-0.0313,0,0,-0.0768,-0.0743,-0.0744,-0.0704,-0.0669,-0.0644,-0.061,-0.0571,-0.0563,-0.0517,-0.0505,-0.0471,-0.042,-0.0402,-0.0391,-0.0384,-0.0425,-0.037,-0.0374,-0.0434,-0.0443,-0.0458,-0.0471,-0.0313,-0.0313,-0.0313,0,0,-0.0761,-0.0767,-0.0752,-0.0732,-0.0687,-0.066,-0.0655,-0.0598,-0.0587,-0.0566,-0.0531,-0.0517,-0.046,-0.0442,-0.042,-0.0426,-0.0441,-0.0402,-0.0507,-0.0515,-0.0529,-0.0541,-0.0609,-0.0627,-0.0412,-0.0412,-0.0412,0,-0.078,-0.0761,-0.0739,-0.0715,-0.0706,-0.0673,-0.0656,-0.0636,-0.0589,-0.06,-0.0572,-0.0534,-0.0483,-0.049,-0.0498,-0.0442,-0.0479,-0.0495,-0.0528,-0.054,-0.0552,-0.0617,-0.0636,-0.0416,-0.0416,-0.0416,-0.0415,0,-0.0747,-0.0753,-0.0736,-0.0716,-0.0705,-0.0683,-0.0659,-0.0663,-0.0653,-0.0645,-0.0655,-0.0605,-0.0604,-0.0564,-0.0541,-0.0594,-0.0608,-0.0529,-0.0531,-0.0573,-0.0638,-0.0655,-0.0422,-0.0421,-0.042,-0.0419,0,0,-0.0734,-0.0721,-0.0719,-0.0727,-0.0711,-0.0689,-0.0704,-0.0707,-0.0752,-0.0721,-0.0774,-0.0724,-0.0748,-0.0729,-0.0696,-0.0716,-0.0813,-0.069,-0.0688,-0.079,-0.0906,-0.078,-0.0788,-0.0751,-0.0754,-0.0756,-0.0928,0,-0.0718,-0.0695,-0.0696,-0.07,-0.069,-0.0705,-0.0736,-0.0752,-0.0776,-0.0826,-0.0807,-0.0829,-0.0792,-0.0813,-0.0836,-0.0803,-0.0863,-0.0779,-0.0824,-0.0828,-0.0736,-0.0803,-0.0765,-0.0941,-0.0946,-0.0948,-0.0951,0,-0.0672,-0.0678,-0.0674,-0.0721,-0.0721,-0.073,-0.0806,-0.0834,-0.0909,-0.094,-0.0999,-0.0995,-0.1046,-0.0982,-0.1041,-0.1,-0.1005,-0.0979,-0.0982,-0.0859,-0.0734,-0.0881,-0.0983,-0.098,-0.0978,-0.0976,-0.0974,0,-0.0642,-0.0659,-0.0666,-0.0674,-0.072,-0.0744,-0.0783,-0.0868,-0.0927,-0.1033,-0.1087,-0.1152,-0.1169,-0.1191,-0.1152,-0.1123,-0.1203,-0.1122,-0.1037,-0.103,-0.1056,-0.104,-0.1204,-0.1204,-0.1203,-0.1203,-0.1202,0,-0.0601,-0.0611,-0.0658,-0.0656,-0.0721,-0.0752,-0.0849,-0.0909,-0.1021,-0.1097,-0.116,-0.121,-0.1223,-0.1246,-0.1231,-0.1197,-0.1266,-0.1113,-0.1068,-0.1087,-0.1073,-0.107,-0.1052,-0.1209,-0.1208,-0.1207,-0.1206,0,-0.0542,-0.0569,-0.0593,-0.066,-0.0696,-0.0741,-0.087,-0.095,-0.1057,-0.116,-0.1191,-0.1275,-0.1297,-0.1305,-0.132,-0.1263,-0.1243,-0.1215,-0.1306,-0.1253,-0.1072,-0.1057,-0.1185,-0.1182,-0.1179,-0.1177,-0.1175,0,-0.0503,-0.0501,-0.059,-0.0645,-0.0674,-0.0767,-0.0847,-0.096,-0.1032,-0.1168,-0.1191,-0.1261,-0.1294,-0.1258,-0.126,-0.1264,-0.1212,-0.1244,-0.113,-0.1129,-0.1073,-0.1061,-0.1049,-0.1171,-0.1171,-0.117,-0.1169,0,-0.0452,-0.0483,-0.0523,-0.0627,-0.0702,-0.0793,-0.0885,-0.0927,-0.1048,-0.1149,-0.1169,-0.1176,-0.12,-0.1192,-0.1199,-0.1179,-0.124,-0.1218,-0.1222,-0.1115,-0.1114,-0.1058,-0.1049,-0.1161,-0.1162,-0.1163,-0.1163,0,-0.044,-0.0464,-0.0529,-0.0617,-0.0713,-0.0767,-0.083,-0.0888,-0.096,-0.1074,-0.1071,-0.1123,-0.1184,-0.1149,-0.1145,-0.1124,-0.1095,-0.1057,-0.1069,-0.1079,-0.0949,-0.0926,-0.0923,0,0,0,0,0,-0.0438,-0.0462,-0.0528,-0.061,-0.0689,-0.0731,-0.0839,-0.0897,-0.0986,-0.0973,-0.1018,-0.1025,-0.1017,-0.1045,-0.0996,-0.1091,-0.1101,-0.1031,-0.1063,-0.1113,-0.1123,-0.097,0,0,0,0,0,0,-0.0444,-0.0498,-0.0511,-0.0574,-0.0614,-0.0685,-0.0735,-0.0799,-0.0795,-0.0885,-0.0883,-0.0952,-0.0957,-0.1018,-0.0968,-0.0977,-0.0974,-0.1067,-0.1064,-0.1107,-0.1116,-0.1124,-0.097,0,0,0,0,0]},{"header":{"parameterUnit":"m.s-1","parameterCategory":2,"la1":30.2991,"la2":30.254,"lo1":-89.0895,"lo2":-89.0444,"dy":0.0017,"dx":0.0017,"nx":28,"ny":28,"refTime":"2024-05-01T21:00:00:Z","depth":"4","parameterNumber":3,"parameterNumberName":"V-component_of_CURRENTS"},"data":[0,0,0,0,0,0,0,0,0,0,0,0,0,0,0,0,0,0,0,0,0,0,0,0,0,0,0,0,0,0,0,0,0,0,0,0,0,0,0,0,0,0,0,0,0,0,0,0,0,0,0,0,0,0,0,0,0,0,0.0099,0.0101,0,0.0273,0.0276,0.0278,0.0368,0.0368,0.0368,0.0368,0.0434,0.0436,0.0438,0,0,0,0,0,0,0,0,0,0,0,0,0,-0.0007,-0.0006,0.0099,0.0101,0.0103,0.0273,0.0276,0.0278,0.0369,0.0368,0.0368,0.0368,0.0434,0.0436,0.0438,0,0,0,0,0,0,0,0,0,0,0,0,0,0.0093,-0.0006,0.0099,0.0166,0.0173,0.0272,0.0276,0.0279,0.0369,0.0368,0.0368,0.0368,0.0433,0.0436,0.0439,0.0462,0,0,0.0447,0.0449,0,0,0,0,0,0,0,0,0.0087,0.0097,0.0154,0.0161,0.017,0.0296,0.0263,0.0334,0.0369,0.0298,0.0368,0.0368,0.0376,0.0384,0.0423,0.0465,0.0468,0.0448,0.0449,0.0451,0.0452,0,0,0,0,0,0,0,0.008,0.0091,0.0171,0.0156,0.0165,0.0238,0.0251,0.0278,0.0337,0.0304,0.031,0.0324,0.038,0.042,0.0425,0.0469,0.0448,0.045,0.0452,0.0453,0.0518,0.0518,0,0,0,0,0,0,0.0044,0.0083,0.0166,0.0176,0.0123,0.0239,0.0254,0.0258,0.0339,0.0351,0.0324,0.0328,0.0416,0.0422,0.0428,0.0439,0.0451,0.0453,0.0455,0.0518,0.0518,0.0518,0,0,0,0,0,0,0.0041,0.0049,0.0159,0.0132,0.015,0.024,0.0245,0.0262,0.0309,0.0355,0.0366,0.0353,0.0416,0.0423,0.0458,0.0442,0.0455,0.0457,0.0518,0.0518,0.0518,0.0474,0,0,0,0,0,0,0.0037,0.0047,0.0041,0.0129,0.015,0.0222,0.0246,0.0265,0.0316,0.0322,0.0383,0.039,0.0416,0.0454,0.0461,0.0447,0.046,0.0518,0.0518,0.0518,0.0476,0.0473,0.047,0,0,0,0,0,0.0032,0.003,0.004,0.005,0.0138,0.0223,0.0242,0.0307,0.0317,0.0346,0.038,0.0388,0.0457,0.0457,0.0465,0.0451,0.0518,0.0518,0.0518,0.0477,0.0474,0.047,0,0,0,0,0,0,-0.0008,0.0041,0.0054,0.0068,0.0138,0.0237,0.0266,0.0307,0.0363,0.0361,0.04,0.0409,0.0429,0.0451,0.0449,0.047,0.0484,0.0486,0.045,0.0447,0.0444,0.0413,0.0462,0,0,0,0,0,-0.0027,-0.0023,0.0051,0.0064,0.0093,0.0177,0.0218,0.0265,0.0324,0.0351,0.0391,0.0419,0.0437,0.0451,0.0479,0.0498,0.0503,0.0491,0.0488,0.0486,0.0466,0.0454,0.0447,0.0518,0.0518,0.0518,0,0,-0.0038,-0.0012,-0.0008,0.0055,0.011,0.0159,0.0203,0.0267,0.0293,0.0344,0.0385,0.0415,0.0441,0.0462,0.0471,0.0477,0.0476,0.0486,0.0483,0.0465,0.0453,0.0445,0.0439,0.0518,0.0518,0.0518,0,0,-0.0042,-0.0036,-0.0023,0.0029,0.0103,0.0149,0.0163,0.0259,0.0285,0.0335,0.0361,0.0376,0.0434,0.0437,0.0445,0.0441,0.0462,0.0459,0.0419,0.0407,0.04,0.0395,0.0421,0.0418,0.0456,0.0456,0.0456,0,-0.0057,-0.0035,0.0001,0.004,0.0066,0.0137,0.0169,0.0214,0.0307,0.0298,0.0337,0.038,0.041,0.0394,0.0404,0.0429,0.0448,0.0428,0.0401,0.0395,0.039,0.0418,0.0415,0.0454,0.0454,0.0454,0.0455,0,-0.0039,-0.0016,0.0,0.0048,0.0081,0.0125,0.0176,0.0198,0.0226,0.026,0.0263,0.0317,0.0327,0.0348,0.0383,0.0356,0.0393,0.0398,0.0403,0.0379,0.0412,0.0409,0.0451,0.0452,0.0452,0.0453,0,0,-0.0083,-0.0007,-0.0001,0.001,0.0083,0.0107,0.0118,0.0136,0.011,0.0187,0.0162,0.0207,0.0226,0.0236,0.0276,0.0284,0.0285,0.0334,0.0334,0.035,0.0295,0.0296,0.0294,0.0293,0.0292,0.0291,0.0343,0,-0.0077,-0.0028,0.0001,0.0028,0.0056,0.0079,0.0069,0.0081,0.0096,0.0092,0.0117,0.0124,0.0186,0.0193,0.0206,0.0267,0.0273,0.0273,0.0324,0.0326,0.032,0.0288,0.0286,0.0341,0.0341,0.0341,0.034,0,-0.0065,-0.0041,-0.001,-0.0012,-0.0008,0.0003,-0.0046,-0.004,-0.0049,-0.0042,-0.0037,0.0004,0.0027,0.0085,0.0147,0.0153,0.0211,0.0263,0.0266,0.0271,0.0319,0.0365,0.0336,0.0336,0.0337,0.0337,0.0337,0,-0.0107,-0.0064,-0.0059,-0.0041,-0.002,-0.0049,-0.0065,-0.0087,-0.0119,-0.0124,-0.013,-0.0103,-0.007,-0.0013,0.0113,0.0128,0.0196,0.0218,0.0268,0.0272,0.0276,0.0281,0.023,0.023,0.023,0.0229,0.0229,0,-0.0108,-0.0105,-0.0081,-0.0065,-0.0125,-0.01,-0.0174,-0.019,-0.0215,-0.0249,-0.02,-0.0196,-0.009,-0.0024,0.0074,0.017,0.0155,0.0246,0.0267,0.0264,0.0267,0.0276,0.0281,0.0231,0.0231,0.0231,0.023,0,-0.0124,-0.0095,-0.0098,-0.0103,-0.0125,-0.017,-0.0237,-0.0291,-0.0295,-0.0328,-0.0326,-0.0265,-0.0171,-0.006,0.0054,0.0121,0.0207,0.0241,0.0249,0.0274,0.0307,0.0309,0.0287,0.0287,0.0287,0.0287,0.0288,0,-0.0118,-0.0107,-0.0136,-0.0179,-0.018,-0.0246,-0.0306,-0.0333,-0.0368,-0.0361,-0.0367,-0.0291,-0.023,-0.0071,0.0046,0.0197,0.0222,0.0261,0.0259,0.0281,0.0305,0.0307,0.0309,0.0288,0.0288,0.0288,0.0288,0,-0.0121,-0.0132,-0.015,-0.0226,-0.0288,-0.0362,-0.0419,-0.0449,-0.0462,-0.0458,-0.0406,-0.0319,-0.021,-0.0074,0.0044,0.0154,0.0227,0.0262,0.0263,0.0262,0.0281,0.0305,0.0307,0.0288,0.0288,0.0288,0.0288,0,-0.0152,-0.0181,-0.0218,-0.0297,-0.0376,-0.0443,-0.0473,-0.0493,-0.052,-0.0476,-0.0453,-0.033,-0.025,-0.0095,0.0014,0.0118,0.0146,0.0171,0.0177,0.0178,0.013,0.0139,0.0101,0,0,0,0,0,-0.0183,-0.0229,-0.0297,-0.038,-0.0452,-0.0489,-0.0541,-0.0553,-0.0538,-0.051,-0.0481,-0.0374,-0.0205,-0.0131,-0.0028,0.0011,0.0156,0.0133,0.0186,0.0289,0.0289,0.0251,0,0,0,0,0,0,-0.0214,-0.0275,-0.0305,-0.0425,-0.0487,-0.0564,-0.0588,-0.0578,-0.0553,-0.0514,-0.0423,-0.0358,-0.0193,-0.026,-0.0027,0.0005,0.0049,0.022,0.0221,0.0289,0.0289,0.0289,0.0249,0,0,0,0,0]}]]